,,Stat1,,Stat2,,Stat3,,Stat4,,Wind1,,Wind1,
time,status,PR1M_SUM,status,RH1M_AVG,status,SR1M_AVG,status,TA1M_AVG,status,W1dAve1m,status,W1sAve1m,
2000-01-04, 00:01:00,VALID,0,VALID,98.6117,VALID,-0.0169808,VALID,18.807,VALID,164,VALID,0,
2000-01-04, 00:02:00,VALID,0,VALID,98.6333,VALID,0,VALID,18.7976,VALID,164,VALID,0,
2000-01-04, 00:03:00,VALID,0,VALID,98.6091,VALID,0,VALID,18.7747,VALID,164,VALID,0,
2000-01-04, 00:04:00,VALID,0,VALID,98.4959,VALID,0,VALID,18.7327,VALID,164,VALID,0,
2000-01-04, 00:05:00,VALID,0,VALID,98.4603,VALID,0,VALID,18.7161,VALID,164,VALID,0,
2000-01-04, 00:06:01,VALID,0,VALID,98.5519,VALID,-0.0169808,VALID,18.7486,VALID,164,VALID,0,
2000-01-04, 00:07:00,VALID,0,VALID,98.5799,VALID,0,VALID,18.7454,VALID,138,VALID,0,
2000-01-04, 00:08:00,VALID,0,VALID,98.6574,VALID,0,VALID,18.7519,VALID,115,VALID,0,
2000-01-04, 00:09:00,VALID,0,VALID,98.7248,VALID,0,VALID,18.7551,VALID,102,VALID,0,
2000-01-04, 00:10:00,VALID,0,VALID,98.7681,VALID,0,VALID,18.7586,VALID,112,VALID,0,
2000-01-04, 00:11:00,VALID,0,VALID,98.7554,VALID,0,VALID,18.7288,VALID,122,VALID,0,
2000-01-04, 00:12:00,VALID,0,VALID,98.7287,VALID,0.0169808,VALID,18.7161,VALID,126,VALID,0,
2000-01-04, 00:13:00,VALID,0,VALID,98.7401,VALID,0,VALID,18.6967,VALID,139,VALID,0,
2000-01-04, 00:14:00,VALID,0,VALID,98.7846,VALID,0,VALID,18.6935,VALID,142,VALID,0,
2000-01-04, 00:15:00,VALID,0,VALID,98.7579,VALID,0.0339617,VALID,18.6845,VALID,156,VALID,0,
2000-01-04, 00:16:00,VALID,0,VALID,98.7782,VALID,-0.0169808,VALID,18.6618,VALID,178,VALID,0,
2000-01-04, 00:17:00,VALID,0,VALID,98.8037,VALID,0,VALID,18.6487,VALID,173,VALID,0,
2000-01-04, 00:18:00,VALID,0,VALID,98.8482,VALID,0,VALID,18.642,VALID,179,VALID,0,
2000-01-04, 00:19:00,VALID,0,VALID,98.9092,VALID,0,VALID,18.6286,VALID,180,VALID,0,
2000-01-04, 00:20:00,VALID,0,VALID,98.9232,VALID,-0.0339617,VALID,18.6355,VALID,180,VALID,0,
2000-01-04, 00:21:00,VALID,0,VALID,98.9359,VALID,0,VALID,18.6159,VALID,171,VALID,0,
2000-01-04, 00:22:00,VALID,0,VALID,98.983,VALID,-0.0169808,VALID,18.6194,VALID,175,VALID,0,
2000-01-04, 00:23:00,VALID,0,VALID,99.0122,VALID,-0.0169808,VALID,18.6064,VALID,178,VALID,0,
2000-01-04, 00:24:00,VALID,0,VALID,99.0618,VALID,-0.0169808,VALID,18.5997,VALID,187,VALID,0,
2000-01-04, 00:25:00,VALID,0,VALID,99.1012,VALID,0,VALID,18.6099,VALID,188,VALID,0,
2000-01-04, 00:26:00,VALID,0,VALID,99.1559,VALID,-0.0169808,VALID,18.6032,VALID,191,VALID,0,
2000-01-04, 00:27:00,VALID,0,VALID,99.1928,VALID,-0.0169808,VALID,18.6166,VALID,193,VALID,0,
2000-01-04, 00:28:00,VALID,0,VALID,99.2487,VALID,-0.0169808,VALID,18.6166,VALID,193,VALID,0,
2000-01-04, 00:29:00,VALID,0,VALID,99.2729,VALID,-0.0169808,VALID,18.6097,VALID,200,VALID,0,
2000-01-04, 00:30:00,VALID,0,VALID,99.3021,VALID,0,VALID,18.6228,VALID,213,VALID,0,
2000-01-04, 00:31:00,VALID,0,VALID,99.311,VALID,0,VALID,18.6231,VALID,218,VALID,0,
2000-01-04, 00:32:00,VALID,0,VALID,99.3466,VALID,0,VALID,18.6196,VALID,216,VALID,0,
2000-01-04, 00:33:00,VALID,0,VALID,99.367,VALID,-0.0339617,VALID,18.6131,VALID,217,VALID,0,
2000-01-04, 00:34:00,VALID,0,VALID,99.3721,VALID,-0.0169808,VALID,18.6166,VALID,210,VALID,0,
2000-01-04, 00:35:00,VALID,0,VALID,99.3975,VALID,0,VALID,18.6064,VALID,209,VALID,0.485978,
2000-01-04, 00:36:00,VALID,0,VALID,99.4204,VALID,-0.0339617,VALID,18.6032,VALID,214,VALID,0.940625,
2000-01-04, 00:37:00,VALID,0,VALID,99.4395,VALID,-0.0509425,VALID,18.6129,VALID,210,VALID,0.911951,
2000-01-04, 00:38:00,VALID,0,VALID,99.4662,VALID,0,VALID,18.6226,VALID,207,VALID,0.765419,
2000-01-04, 00:39:00,VALID,0,VALID,99.4916,VALID,-0.0339617,VALID,18.633,VALID,215,VALID,0.802973,
2000-01-04, 00:40:00,VALID,0,VALID,99.5183,VALID,-0.0339617,VALID,18.6323,VALID,196,VALID,0.482113,
2000-01-04, 00:41:00,VALID,0,VALID,99.5514,VALID,-0.0679233,VALID,18.6424,VALID,207,VALID,0.537157,
2000-01-04, 00:42:00,VALID,0,VALID,99.5832,VALID,-0.0679233,VALID,18.639,VALID,204,VALID,0.41311,
2000-01-04, 00:43:00,VALID,0,VALID,99.6073,VALID,-0.0339617,VALID,18.6489,VALID,200,VALID,0.00801809,
2000-01-04, 00:44:00,VALID,0,VALID,99.6111,VALID,-0.0339617,VALID,18.6487,VALID,197,VALID,0,
2000-01-04, 00:45:00,VALID,0,VALID,99.6124,VALID,-0.101885,VALID,18.6422,VALID,196,VALID,0,
2000-01-04, 00:46:00,VALID,0,VALID,99.6289,VALID,-0.0509425,VALID,18.6491,VALID,206,VALID,0,
2000-01-04, 00:47:00,VALID,0,VALID,99.6251,VALID,-0.0169808,VALID,18.6385,VALID,197,VALID,0.184495,
2000-01-04, 00:48:00,VALID,0,VALID,99.6353,VALID,-0.0509425,VALID,18.6424,VALID,200,VALID,0.473818,
2000-01-04, 00:49:00,VALID,0,VALID,99.6353,VALID,-0.0339617,VALID,18.6457,VALID,193,VALID,0.807566,
2000-01-04, 00:50:00,VALID,0,VALID,99.6162,VALID,-0.0169808,VALID,18.6424,VALID,200,VALID,0.78125,
2000-01-04, 00:51:00,VALID,0,VALID,99.6137,VALID,-0.0679233,VALID,18.6422,VALID,218,VALID,0.614453,
2000-01-04, 00:52:00,VALID,0,VALID,99.6073,VALID,-0.0679233,VALID,18.6491,VALID,209,VALID,0.740625,
2000-01-04, 00:53:00,VALID,0,VALID,99.5984,VALID,-0.0339617,VALID,18.6517,VALID,212,VALID,0.897852,
2000-01-04, 00:54:00,VALID,0,VALID,99.5959,VALID,-0.0169808,VALID,18.6487,VALID,215,VALID,0.794202,
2000-01-04, 00:55:00,VALID,0,VALID,99.6073,VALID,-0.0679233,VALID,18.6584,VALID,226,VALID,0.83774,
2000-01-04, 00:56:00,VALID,0,VALID,99.6226,VALID,-0.0169808,VALID,18.6718,VALID,210,VALID,0.402138,
2000-01-04, 00:57:00,VALID,0,VALID,99.5883,VALID,-0.0339617,VALID,18.6581,VALID,217,VALID,0.753711,
2000-01-04, 00:58:00,VALID,0,VALID,99.5666,VALID,-0.0339617,VALID,18.6685,VALID,211,VALID,0.474826,
2000-01-04, 00:59:00,VALID,0,VALID,99.5781,VALID,-0.0509425,VALID,18.6678,VALID,217,VALID,0.618945,
2000-01-04, 01:00:00,VALID,0,VALID,99.5794,VALID,-0.0169808,VALID,18.6778,VALID,231,VALID,0.206836,
2000-01-04, 01:01:00,VALID,0,VALID,99.5844,VALID,0,VALID,18.6976,VALID,227,VALID,0,
2000-01-04, 01:02:00,VALID,0,VALID,99.5755,VALID,-0.0169808,VALID,18.6879,VALID,229,VALID,0,
2000-01-04, 01:03:00,VALID,0,VALID,99.5743,VALID,-0.0509425,VALID,18.6907,VALID,218,VALID,0.0759215,
2000-01-04, 01:04:00,VALID,0,VALID,99.5616,VALID,-0.0169808,VALID,18.6875,VALID,217,VALID,0.764844,
2000-01-04, 01:05:00,VALID,0,VALID,99.559,VALID,-0.0169808,VALID,18.6937,VALID,217,VALID,0.262408,
2000-01-04, 01:06:00,VALID,0,VALID,99.5603,VALID,0,VALID,18.6937,VALID,214,VALID,0,
2000-01-04, 01:07:00,VALID,0,VALID,99.5552,VALID,-0.0339617,VALID,18.7106,VALID,229,VALID,0,
2000-01-04, 01:08:00,VALID,0,VALID,99.5641,VALID,-0.0169808,VALID,18.6935,VALID,239,VALID,0,
2000-01-04, 01:09:00,VALID,0,VALID,99.5616,VALID,-0.0169808,VALID,18.7103,VALID,238,VALID,0.505279,
2000-01-04, 01:10:01,VALID,0,VALID,99.5361,VALID,-0.0509425,VALID,18.7039,VALID,235,VALID,0.746833,
2000-01-04, 01:11:00,VALID,0,VALID,99.5209,VALID,-0.0169808,VALID,18.6969,VALID,234,VALID,0.569712,
2000-01-04, 01:12:00,VALID,0,VALID,99.5069,VALID,-0.0339617,VALID,18.6999,VALID,235,VALID,0.503571,
2000-01-04, 01:13:00,VALID,0,VALID,99.4916,VALID,-0.0169808,VALID,18.7098,VALID,232,VALID,0,
2000-01-04, 01:14:00,VALID,0,VALID,99.4738,VALID,-0.0339617,VALID,18.7165,VALID,232,VALID,0,
2000-01-04, 01:15:00,VALID,0,VALID,99.4382,VALID,-0.0169808,VALID,18.7004,VALID,226,VALID,0,
2000-01-04, 01:16:00,VALID,0,VALID,99.3988,VALID,-0.0339617,VALID,18.7039,VALID,236,VALID,0,
2000-01-04, 01:17:00,VALID,0,VALID,99.3924,VALID,-0.0339617,VALID,18.7168,VALID,231,VALID,0,
2000-01-04, 01:18:00,VALID,0,VALID,99.3797,VALID,-0.0509425,VALID,18.7133,VALID,213,VALID,0,
2000-01-04, 01:19:00,VALID,0,VALID,99.353,VALID,-0.0339617,VALID,18.7163,VALID,217,VALID,0,
2000-01-04, 01:20:00,VALID,0,VALID,99.3352,VALID,-0.0849042,VALID,18.7232,VALID,247,VALID,0,
2000-01-04, 01:21:00,VALID,0,VALID,99.3174,VALID,-0.0679233,VALID,18.7136,VALID,244,VALID,0,
2000-01-04, 01:22:00,VALID,0,VALID,99.3161,VALID,-0.0509425,VALID,18.7133,VALID,244,VALID,0,
2000-01-04, 01:23:00,VALID,0,VALID,99.3263,VALID,-0.0849042,VALID,18.7131,VALID,245,VALID,0,
2000-01-04, 01:24:00,VALID,0,VALID,99.3301,VALID,-0.0509425,VALID,18.7267,VALID,245,VALID,0,
2000-01-04, 01:25:00,VALID,0,VALID,99.3365,VALID,-0.0679233,VALID,18.7161,VALID,244,VALID,0,
2000-01-04, 01:26:00,VALID,0,VALID,99.3365,VALID,0,VALID,18.7195,VALID,245,VALID,0,
2000-01-04, 01:27:00,VALID,0,VALID,99.3225,VALID,-0.0509425,VALID,18.7297,VALID,244,VALID,0,
2000-01-04, 01:28:00,VALID,0,VALID,99.353,VALID,-0.0849042,VALID,18.7232,VALID,244,VALID,0,
2000-01-04, 01:29:00,VALID,0,VALID,99.3746,VALID,-0.0509425,VALID,18.7359,VALID,244,VALID,0,
2000-01-04, 01:30:00,VALID,0,VALID,99.3479,VALID,-0.0509425,VALID,18.7463,VALID,244,VALID,0,
2000-01-04, 01:31:00,VALID,0,VALID,99.3924,VALID,-0.0679233,VALID,18.7521,VALID,244,VALID,0,
2000-01-04, 01:32:00,VALID,0,VALID,99.4446,VALID,-0.0679233,VALID,18.7683,VALID,238,VALID,0,
2000-01-04, 01:33:00,VALID,0,VALID,99.4369,VALID,-0.0339617,VALID,18.7784,VALID,237,VALID,0,
2000-01-04, 01:34:00,VALID,0,VALID,99.4369,VALID,-0.0339617,VALID,18.7745,VALID,237,VALID,0,
2000-01-04, 01:35:00,VALID,0,VALID,99.414,VALID,-0.0339617,VALID,18.7586,VALID,237,VALID,0,
2000-01-04, 01:36:00,VALID,0,VALID,99.3772,VALID,-0.0339617,VALID,18.7459,VALID,237,VALID,0,
2000-01-04, 01:37:00,VALID,0,VALID,99.3683,VALID,-0.0509425,VALID,18.7332,VALID,237,VALID,0,
2000-01-04, 01:38:00,VALID,0,VALID,99.3924,VALID,-0.0169808,VALID,18.7198,VALID,237,VALID,0,
2000-01-04, 01:39:00,VALID,0,VALID,99.3695,VALID,-0.0339617,VALID,18.7004,VALID,237,VALID,0,
2000-01-04, 01:40:00,VALID,0,VALID,99.3581,VALID,-0.0169808,VALID,18.6944,VALID,237,VALID,0,
2000-01-04, 01:41:00,VALID,0,VALID,99.4102,VALID,0,VALID,18.6907,VALID,237,VALID,0,
2000-01-04, 01:42:00,VALID,0,VALID,99.4242,VALID,-0.0339617,VALID,18.6972,VALID,237,VALID,0,
2000-01-04, 01:43:01,VALID,0,VALID,99.4026,VALID,-0.0339617,VALID,18.7004,VALID,237,VALID,0,
2000-01-04, 01:44:00,VALID,0,VALID,99.4166,VALID,-0.0509425,VALID,18.7004,VALID,237,VALID,0,
2000-01-04, 01:45:00,VALID,0,VALID,99.4395,VALID,-0.0339617,VALID,18.7036,VALID,237,VALID,0,
2000-01-04, 01:46:00,VALID,0,VALID,99.4611,VALID,-0.0339617,VALID,18.723,VALID,237,VALID,0,
2000-01-04, 01:47:00,VALID,0,VALID,99.4814,VALID,-0.0339617,VALID,18.7223,VALID,237,VALID,0,
2000-01-04, 01:48:00,VALID,0,VALID,99.4853,VALID,0,VALID,18.7394,VALID,237,VALID,0,
2000-01-04, 01:49:00,VALID,0,VALID,99.4878,VALID,-0.0509425,VALID,18.7396,VALID,237,VALID,0,
2000-01-04, 01:50:00,VALID,0,VALID,99.4649,VALID,-0.0679233,VALID,18.7198,VALID,237,VALID,0,
2000-01-04, 01:51:00,VALID,0,VALID,99.4509,VALID,-0.0169808,VALID,18.7002,VALID,237,VALID,0,
2000-01-04, 01:52:00,VALID,0,VALID,99.4535,VALID,-0.0679233,VALID,18.7004,VALID,237,VALID,0,
2000-01-04, 01:53:00,VALID,0,VALID,99.4713,VALID,-0.0679233,VALID,18.7131,VALID,237,VALID,0,
2000-01-04, 01:54:00,VALID,0,VALID,99.4738,VALID,-0.0339617,VALID,18.7136,VALID,237,VALID,0,
2000-01-04, 01:55:01,VALID,0,VALID,99.4776,VALID,-0.0169808,VALID,18.7168,VALID,215,VALID,0,
2000-01-04, 01:56:00,VALID,0,VALID,99.4814,VALID,-0.0679233,VALID,18.7165,VALID,177,VALID,0,
2000-01-04, 01:57:00,VALID,0,VALID,99.4891,VALID,-0.0849042,VALID,18.7195,VALID,149,VALID,0,
2000-01-04, 01:58:00,VALID,0,VALID,99.4662,VALID,-0.0509425,VALID,18.6939,VALID,148,VALID,0,
2000-01-04, 01:59:00,VALID,0,VALID,99.4217,VALID,-0.0509425,VALID,18.678,VALID,148,VALID,0,
2000-01-04, 02:00:00,VALID,0,VALID,99.3772,VALID,-0.0679233,VALID,18.6424,VALID,148,VALID,0,
2000-01-04, 02:01:00,VALID,0,VALID,99.3873,VALID,-0.101885,VALID,18.6161,VALID,158,VALID,0,
2000-01-04, 02:02:00,VALID,0,VALID,99.4268,VALID,-0.0339617,VALID,18.6131,VALID,167,VALID,0,
2000-01-04, 02:03:00,VALID,0,VALID,99.4509,VALID,-0.0339617,VALID,18.6071,VALID,167,VALID,0,
2000-01-04, 02:04:00,VALID,0,VALID,99.5107,VALID,-0.0679233,VALID,18.5967,VALID,167,VALID,0,
2000-01-04, 02:05:00,VALID,0,VALID,99.5196,VALID,-0.0169808,VALID,18.6,VALID,167,VALID,0,
2000-01-04, 02:06:00,VALID,0,VALID,99.5399,VALID,-0.0339617,VALID,18.5937,VALID,170,VALID,0,
2000-01-04, 02:07:00,VALID,0,VALID,99.5616,VALID,-0.0169808,VALID,18.59,VALID,171,VALID,0,
2000-01-04, 02:08:00,VALID,0,VALID,99.5959,VALID,-0.0509425,VALID,18.6097,VALID,171,VALID,0,
2000-01-04, 02:09:00,VALID,0,VALID,99.5984,VALID,-0.0509425,VALID,18.6161,VALID,171,VALID,0,
2000-01-04, 02:10:00,VALID,0,VALID,99.5997,VALID,-0.0339617,VALID,18.6106,VALID,171,VALID,0,
2000-01-04, 02:11:00,VALID,0,VALID,99.6328,VALID,-0.0679233,VALID,18.6129,VALID,169,VALID,0,
2000-01-04, 02:12:00,VALID,0,VALID,99.6429,VALID,-0.0509425,VALID,18.6194,VALID,166,VALID,0,
2000-01-04, 02:13:00,VALID,0,VALID,99.648,VALID,-0.0679233,VALID,18.6325,VALID,166,VALID,0,
2000-01-04, 02:14:00,VALID,0,VALID,99.6773,VALID,-0.0339617,VALID,18.6387,VALID,148,VALID,0,
2000-01-04, 02:15:00,VALID,0,VALID,99.6773,VALID,-0.0509425,VALID,18.6454,VALID,148,VALID,0,
2000-01-04, 02:16:00,VALID,0,VALID,99.6849,VALID,-0.0509425,VALID,18.6681,VALID,137,VALID,0,
2000-01-04, 02:17:01,VALID,0,VALID,99.6951,VALID,-0.0169808,VALID,18.6713,VALID,133,VALID,0,
2000-01-04, 02:18:00,VALID,0,VALID,99.7014,VALID,-0.0849042,VALID,18.6942,VALID,158,VALID,0,
2000-01-04, 02:19:00,VALID,0,VALID,99.6709,VALID,-0.0339617,VALID,18.6912,VALID,175,VALID,0,
2000-01-04, 02:20:00,VALID,0,VALID,99.6658,VALID,-0.0339617,VALID,18.6648,VALID,181,VALID,0,
2000-01-04, 02:21:00,VALID,0,VALID,99.6696,VALID,-0.0509425,VALID,18.6681,VALID,193,VALID,0,
2000-01-04, 02:22:00,VALID,0,VALID,99.69,VALID,-0.0679233,VALID,18.6648,VALID,192,VALID,0,
2000-01-04, 02:23:00,VALID,0,VALID,99.6824,VALID,-0.0339617,VALID,18.6778,VALID,193,VALID,0,
2000-01-04, 02:24:00,VALID,0,VALID,99.69,VALID,0,VALID,18.6775,VALID,194,VALID,0,
2000-01-04, 02:25:00,VALID,0,VALID,99.6887,VALID,-0.0509425,VALID,18.6745,VALID,194,VALID,0,
2000-01-04, 02:26:00,VALID,0,VALID,99.7002,VALID,-0.0679233,VALID,18.6775,VALID,222,VALID,0,
2000-01-04, 02:27:00,VALID,0,VALID,99.6862,VALID,-0.0679233,VALID,18.6877,VALID,226,VALID,0,
2000-01-04, 02:28:01,VALID,0,VALID,99.6951,VALID,-0.0679233,VALID,18.6944,VALID,215,VALID,0,
2000-01-04, 02:29:00,VALID,0,VALID,99.7281,VALID,-0.0339617,VALID,18.714,VALID,225,VALID,0,
2000-01-04, 02:30:00,VALID,0,VALID,99.7345,VALID,-0.101885,VALID,18.7205,VALID,224,VALID,0,
2000-01-04, 02:31:00,VALID,0,VALID,99.7332,VALID,-0.0679233,VALID,18.7297,VALID,224,VALID,0,
2000-01-04, 02:32:00,VALID,0,VALID,99.7358,VALID,-0.0679233,VALID,18.7364,VALID,207,VALID,0,
2000-01-04, 02:33:00,VALID,0,VALID,99.7447,VALID,-0.0849042,VALID,18.7295,VALID,203,VALID,0,
2000-01-04, 02:34:00,VALID,0,VALID,99.7421,VALID,-0.0849042,VALID,18.7297,VALID,199,VALID,0,
2000-01-04, 02:35:00,VALID,0,VALID,99.737,VALID,-0.0339617,VALID,18.7463,VALID,192,VALID,0,
2000-01-04, 02:36:00,VALID,0,VALID,99.7294,VALID,-0.0849042,VALID,18.7422,VALID,185,VALID,0,
2000-01-04, 02:37:00,VALID,0,VALID,99.7472,VALID,-0.0679233,VALID,18.7389,VALID,176,VALID,0,
2000-01-04, 02:38:01,VALID,0,VALID,99.7497,VALID,-0.0849042,VALID,18.7419,VALID,170,VALID,0,
2000-01-04, 02:39:01,VALID,0,VALID,99.7383,VALID,-0.0509425,VALID,18.7514,VALID,171,VALID,0,
2000-01-04, 02:40:00,VALID,0,VALID,99.751,VALID,-0.0679233,VALID,18.7521,VALID,178,VALID,0,
2000-01-04, 02:41:00,VALID,0,VALID,99.7447,VALID,-0.0339617,VALID,18.7583,VALID,179,VALID,0,
2000-01-04, 02:42:00,VALID,0,VALID,99.7688,VALID,-0.0169808,VALID,18.7648,VALID,189,VALID,0,
2000-01-04, 02:43:00,VALID,0,VALID,99.7548,VALID,-0.0169808,VALID,18.768,VALID,190,VALID,0,
2000-01-04, 02:44:00,VALID,0,VALID,99.751,VALID,-0.0169808,VALID,18.7648,VALID,189,VALID,0,
2000-01-04, 02:45:00,VALID,0,VALID,99.7612,VALID,-0.0509425,VALID,18.7745,VALID,188,VALID,0,
2000-01-04, 02:46:00,VALID,0,VALID,99.7536,VALID,-0.0339617,VALID,18.7909,VALID,187,VALID,0,
2000-01-04, 02:47:00,VALID,0,VALID,99.7345,VALID,-0.0509425,VALID,18.7847,VALID,187,VALID,0,
2000-01-04, 02:48:00,VALID,0,VALID,99.718,VALID,-0.0509425,VALID,18.7745,VALID,187,VALID,0,
2000-01-04, 02:49:00,VALID,0,VALID,99.7269,VALID,0,VALID,18.771,VALID,187,VALID,0,
2000-01-04, 02:50:01,VALID,0,VALID,99.723,VALID,-0.0509425,VALID,18.7713,VALID,187,VALID,0,
2000-01-04, 02:51:00,VALID,0,VALID,99.7269,VALID,-0.0339617,VALID,18.7713,VALID,187,VALID,0,
2000-01-04, 02:52:00,VALID,0,VALID,99.7472,VALID,-0.0339617,VALID,18.7842,VALID,187,VALID,0,
2000-01-04, 02:53:00,VALID,0,VALID,99.7472,VALID,-0.0339617,VALID,18.8006,VALID,187,VALID,0,
2000-01-04, 02:54:00,VALID,0,VALID,99.7561,VALID,-0.0169808,VALID,18.8066,VALID,187,VALID,0,
2000-01-04, 02:55:00,VALID,0,VALID,99.7574,VALID,-0.0509425,VALID,18.8193,VALID,187,VALID,0,
2000-01-04, 02:56:00,VALID,0,VALID,99.7714,VALID,-0.0679233,VALID,18.829,VALID,187,VALID,0,
2000-01-04, 02:57:00,VALID,0,VALID,99.7599,VALID,0,VALID,18.8454,VALID,187,VALID,0,
2000-01-04, 02:58:00,VALID,0,VALID,99.7675,VALID,-0.0339617,VALID,18.8451,VALID,187,VALID,0,
2000-01-04, 02:59:00,VALID,0,VALID,99.7637,VALID,-0.0339617,VALID,18.8615,VALID,207,VALID,0,
2000-01-04, 03:00:00,VALID,0,VALID,99.7701,VALID,0,VALID,18.8585,VALID,241,VALID,0,
2000-01-04, 03:01:01,VALID,0,VALID,99.7358,VALID,-0.0509425,VALID,18.8555,VALID,242,VALID,0,
2000-01-04, 03:02:00,VALID,0,VALID,99.7218,VALID,-0.0169808,VALID,18.8389,VALID,243,VALID,0,
2000-01-04, 03:03:00,VALID,0,VALID,99.7319,VALID,-0.0339617,VALID,18.8361,VALID,243,VALID,0,
2000-01-04, 03:04:00,VALID,0,VALID,99.7307,VALID,-0.0509425,VALID,18.8163,VALID,243,VALID,0,
2000-01-04, 03:05:00,VALID,0,VALID,99.7294,VALID,0,VALID,18.8133,VALID,243,VALID,0,
2000-01-04, 03:06:00,VALID,0,VALID,99.7332,VALID,-0.0509425,VALID,18.7904,VALID,243,VALID,0,
2000-01-04, 03:07:00,VALID,0,VALID,99.7408,VALID,-0.0849042,VALID,18.7844,VALID,243,VALID,0,
2000-01-04, 03:08:00,VALID,0,VALID,99.7637,VALID,-0.0339617,VALID,18.7775,VALID,243,VALID,0,
2000-01-04, 03:09:00,VALID,0,VALID,99.7701,VALID,-0.0169808,VALID,18.7807,VALID,243,VALID,0,
2000-01-04, 03:10:00,VALID,0,VALID,99.7993,VALID,0,VALID,18.7835,VALID,243,VALID,0,
2000-01-04, 03:11:00,VALID,0,VALID,99.8032,VALID,-0.0169808,VALID,18.7904,VALID,243,VALID,0,
2000-01-04, 03:12:00,VALID,0,VALID,99.8197,VALID,-0.0849042,VALID,18.8075,VALID,243,VALID,0,
2000-01-04, 03:13:00,VALID,0,VALID,99.8222,VALID,-0.0169808,VALID,18.8096,VALID,289,VALID,0,
2000-01-04, 03:14:00,VALID,0,VALID,99.7968,VALID,-0.0169808,VALID,18.7842,VALID,322,VALID,0,
2000-01-04, 03:15:00,VALID,0,VALID,99.8006,VALID,-0.0679233,VALID,18.7809,VALID,322,VALID,0,
2000-01-04, 03:16:00,VALID,0,VALID,99.8197,VALID,-0.0509425,VALID,18.7809,VALID,322,VALID,0,
2000-01-04, 03:17:00,VALID,0,VALID,99.8286,VALID,-0.0679233,VALID,18.7941,VALID,322,VALID,0,
2000-01-04, 03:18:00,VALID,0,VALID,99.8464,VALID,-0.0169808,VALID,18.7999,VALID,322,VALID,0,
2000-01-04, 03:19:00,VALID,0,VALID,99.8578,VALID,-0.0509425,VALID,18.8068,VALID,321,VALID,0,
2000-01-04, 03:20:00,VALID,0,VALID,99.882,VALID,-0.0509425,VALID,18.8292,VALID,321,VALID,0,
2000-01-04, 03:21:00,VALID,0,VALID,99.9036,VALID,-0.0169808,VALID,18.8521,VALID,325,VALID,0,
2000-01-04, 03:22:00,VALID,0,VALID,99.9112,VALID,-0.0169808,VALID,18.8488,VALID,329,VALID,0,
2000-01-04, 03:23:00,VALID,0,VALID,99.8998,VALID,-0.0679233,VALID,18.855,VALID,336,VALID,0,
2000-01-04, 03:24:00,VALID,0,VALID,99.9036,VALID,-0.0169808,VALID,18.8613,VALID,339,VALID,0,
2000-01-04, 03:25:00,VALID,0,VALID,99.9138,VALID,-0.0679233,VALID,18.865,VALID,338,VALID,0,
2000-01-04, 03:26:00,VALID,0,VALID,99.8985,VALID,-0.0679233,VALID,18.8521,VALID,347,VALID,0,
2000-01-04, 03:27:00,VALID,0,VALID,99.8947,VALID,-0.0339617,VALID,18.8548,VALID,49,VALID,0,
2000-01-04, 03:28:00,VALID,0,VALID,99.9062,VALID,-0.0509425,VALID,18.8456,VALID,112,VALID,0,
2000-01-04, 03:29:00,VALID,0,VALID,99.9023,VALID,-0.0679233,VALID,18.8486,VALID,106,VALID,0,
2000-01-04, 03:30:00,VALID,0,VALID,99.9189,VALID,-0.0509425,VALID,18.8546,VALID,107,VALID,0,
2000-01-04, 03:31:00,VALID,0,VALID,99.9252,VALID,-0.0339617,VALID,18.8617,VALID,110,VALID,0,
2000-01-04, 03:32:00,VALID,0,VALID,99.9011,VALID,-0.0339617,VALID,18.8357,VALID,110,VALID,0,
2000-01-04, 03:33:00,VALID,0,VALID,99.8922,VALID,-0.0339617,VALID,18.8165,VALID,110,VALID,0,
2000-01-04, 03:34:00,VALID,0,VALID,99.8985,VALID,-0.0339617,VALID,18.8133,VALID,110,VALID,0,
2000-01-04, 03:35:00,VALID,0,VALID,99.9163,VALID,-0.0169808,VALID,18.8195,VALID,110,VALID,0,
2000-01-04, 03:36:00,VALID,0,VALID,99.9201,VALID,-0.0679233,VALID,18.8361,VALID,110,VALID,0,
2000-01-04, 03:37:00,VALID,0,VALID,99.9392,VALID,-0.101885,VALID,18.8361,VALID,109,VALID,0,
2000-01-04, 03:38:00,VALID,0,VALID,99.957,VALID,-0.101885,VALID,18.8488,VALID,109,VALID,0,
2000-01-04, 03:39:00,VALID,0,VALID,99.9456,VALID,-0.0849042,VALID,18.8493,VALID,109,VALID,0,
2000-01-04, 03:40:00,VALID,0,VALID,99.9329,VALID,-0.0509425,VALID,18.8426,VALID,109,VALID,0,
2000-01-04, 03:41:00,VALID,0,VALID,99.9379,VALID,-0.0679233,VALID,18.8361,VALID,109,VALID,0,
2000-01-04, 03:42:00,VALID,0,VALID,99.9519,VALID,-0.0849042,VALID,18.8292,VALID,109,VALID,0,
2000-01-04, 03:43:01,VALID,0,VALID,99.9596,VALID,-0.101885,VALID,18.8553,VALID,109,VALID,0,
2000-01-04, 03:44:00,VALID,0,VALID,99.9443,VALID,-0.0509425,VALID,18.8292,VALID,109,VALID,0,
2000-01-04, 03:45:00,VALID,0,VALID,99.9456,VALID,-0.0849042,VALID,18.8197,VALID,109,VALID,0,
2000-01-04, 03:46:00,VALID,0,VALID,99.9672,VALID,-0.0849042,VALID,18.8426,VALID,109,VALID,0,
2000-01-04, 03:47:00,VALID,0,VALID,99.9685,VALID,-0.0679233,VALID,18.8386,VALID,109,VALID,0,
2000-01-04, 03:48:00,VALID,0,VALID,99.9545,VALID,-0.101885,VALID,18.8428,VALID,109,VALID,0,
2000-01-04, 03:49:00,VALID,0,VALID,99.9608,VALID,-0.0339617,VALID,18.8426,VALID,109,VALID,0,
2000-01-04, 03:50:00,VALID,0,VALID,99.9596,VALID,-0.0849042,VALID,18.8262,VALID,109,VALID,0,
2000-01-04, 03:51:00,VALID,0,VALID,99.9893,VALID,0,VALID,18.8546,VALID,109,VALID,0,
2000-01-04, 03:52:00,VALID,0,VALID,99.986,VALID,0,VALID,18.8576,VALID,109,VALID,0,
2000-01-04, 03:53:00,VALID,0,VALID,99.9886,VALID,0.0169808,VALID,18.8576,VALID,109,VALID,0,
2000-01-04, 03:54:00,VALID,0,VALID,99.9847,VALID,0,VALID,18.8636,VALID,109,VALID,0,
2000-01-04, 03:55:00,VALID,0,VALID,99.986,VALID,0,VALID,18.8571,VALID,109,VALID,0,
2000-01-04, 03:56:00,VALID,0,VALID,99.9845,VALID,0,VALID,18.8539,VALID,109,VALID,0,
2000-01-04, 03:57:00,VALID,0,VALID,99.9863,VALID,0,VALID,18.8705,VALID,109,VALID,0,
2000-01-04, 03:58:00,VALID,0,VALID,99.9858,VALID,0.0339617,VALID,18.8735,VALID,109,VALID,0,
2000-01-04, 03:59:00,VALID,0,VALID,99.998,VALID,0.0169808,VALID,18.8698,VALID,109,VALID,0,
2000-01-04, 04:00:00,VALID,0,VALID,99.999,VALID,0,VALID,18.9088,VALID,109,VALID,0,
2000-01-04, 04:01:00,VALID,0,VALID,100,VALID,0,VALID,18.9222,VALID,109,VALID,0,
2000-01-04, 04:02:00,VALID,0,VALID,100,VALID,-0.0169808,VALID,18.9344,VALID,109,VALID,0,
2000-01-04, 04:03:00,VALID,0,VALID,100,VALID,0.0169808,VALID,18.9478,VALID,109,VALID,0,
2000-01-04, 04:04:00,VALID,0,VALID,100,VALID,0,VALID,18.9677,VALID,111,VALID,0,
2000-01-04, 04:05:00,VALID,0,VALID,100,VALID,0,VALID,18.9702,VALID,108,VALID,0,
2000-01-04, 04:06:00,VALID,0,VALID,100,VALID,0,VALID,18.9635,VALID,103,VALID,0,
2000-01-04, 04:07:00,VALID,0,VALID,99.9967,VALID,0,VALID,18.9607,VALID,102,VALID,0,
2000-01-04, 04:08:00,VALID,0,VALID,100,VALID,0,VALID,18.9704,VALID,103,VALID,0,
2000-01-04, 04:09:00,VALID,0,VALID,99.9977,VALID,0.0339617,VALID,18.9573,VALID,106,VALID,0,
2000-01-04, 04:10:00,VALID,0,VALID,99.9863,VALID,0.0169808,VALID,18.954,VALID,93,VALID,0,
2000-01-04, 04:11:00,VALID,0,VALID,99.9921,VALID,0.0169808,VALID,18.9411,VALID,94,VALID,0,
2000-01-04, 04:12:00,VALID,0,VALID,99.9748,VALID,0.0169808,VALID,18.9418,VALID,93,VALID,0,
2000-01-04, 04:13:00,VALID,0,VALID,99.9481,VALID,0,VALID,18.9026,VALID,61,VALID,0,
2000-01-04, 04:14:00,VALID,0,VALID,99.9278,VALID,0.0169808,VALID,18.87,VALID,57,VALID,0,
2000-01-04, 04:15:00,VALID,0,VALID,99.9214,VALID,0,VALID,18.8509,VALID,56,VALID,0,
2000-01-04, 04:16:00,VALID,0,VALID,99.9214,VALID,0.0339617,VALID,18.8442,VALID,56,VALID,0,
2000-01-04, 04:17:00,VALID,0,VALID,99.9316,VALID,0.0169808,VALID,18.8345,VALID,56,VALID,0,